Location: Ar Ranvel
(48.3000°N, 4.8833°W)
Time: 08:05:01
(UTC+00:00)

Cosmos 1802 Rocket - Pass Details

Date: 16 June 2021
Orbit: 955 x 1010 km, 82.9° (Epoch: 26 July)

Event Time Altitude Azimuth Distance (km) Brightness Sun altitude
Rises 22:26:45 0° 348° (NNW) 3,677 8.7 -13.9°
Reaches altitude 10° 22:29:16 10° 344° (NNW) 2,733 7.7 -14.1°
Maximum altitude 22:35:24 60° 267° (W) 1,126 4.4 -14.6°
Enters shadow 22:40:44 14° 191° (SSW) 2,446 5.6 -14.9°
